Regional Weather Roundup
Issued by NWS

Home | Current Version | Previous Version | Graphics & Text | Print | Product List | Glossary On
Versions: 1 2 3 4 5 6 7 8 9 10 11 12 13 14 15 16 17 18 19 20 21 22 23 24 25 26 27 28 29 30 31 32 33 34 35 36 37 38 39 40 41 42 43 44 45 46 47 48 49 50
000
ASUS43 KDMX 272101
RWRIA

WEATHER ROUNDUP FOR IOWA
NATIONAL WEATHER SERVICE DES MOINES IA
400 PM CDT SAT MAY 27 2017

NOTE: "FAIR" INDICATES FEW OR NO CLOUDS BELOW 12,000 FEET WITH NO
SIGNIFICANT WEATHER AND/OR OBSTRUCTIONS TO VISIBILITY.

* - THESE STATIONS ARE NOT NWS STATIONS...THUS NOT UNDER NWS
QUALITY CONTROL.  THEY ALSO DO NOT REPORT WEATHER SUCH
AS PRECIPITATION OR FOG.

IAZ001>003-012>014-020>022-031>034-043>046-272200-
   NORTHWEST IOWA

CITY           SKY/WX    TMP DP  RH WIND       PRES   REMARKS
CARROLL *      PTSUNNY   68  55  64 NE16G22   29.87R
CHEROKEE *     SUNNY     70  52  53 N15       29.88S
DENISON *      SUNNY     72  50  46 E16G23    29.88R
LE MARS *      SUNNY     70  54  56 NW13G18   29.90F
ORANGE CITY *  SUNNY     66  54  63 NW7       29.91F
SHELDON *      MOSUNNY   66  50  55 NW6       29.89F
SIOUX CITY     SUNNY     74  51  44 N9        29.88F
SPENCER        CLOUDY    69  53  56 N13       29.90F
STORM LAKE *   SUNNY     72  45  37 NE15G22   29.87F
$$

IAZ055>058-069>071-079>083-090>094-272200-
   SOUTHWEST IOWA

CITY           SKY/WX    TMP DP  RH WIND       PRES   REMARKS
ATLANTIC *     CLOUDY    64  55  72 E10G21    29.88R
AUDUBON *      CLOUDY    64  57  77 E13       29.89R
CLARINDA *     PTSUNNY   72  63  73 NE10      29.87R
COUNCIL BLFS *   N/A     68  59  73 E12       29.88R
CRESTON *      CLOUDY    68  61  77 NE12      29.87S
HARLAN  *      MOSUNNY   68  55  64 NE12G21   29.91R
LAMONI         CLOUDY    71  61  70 N7        29.83S
RED OAK *      PTSUNNY   70  59  68 NE14      29.87S
SHENANDOAH *   MOSUNNY   72  63  73 N14G21    29.85F
$$

IAZ047>049-059>061-072>074-084-272200-
   CENTRAL IOWA

CITY           SKY/WX    TMP DP  RH WIND       PRES   REMARKS
AMES           CLOUDY    62  57  83 NE13G21   29.86R
ANKENY *       CLOUDY    63  57  82 NE16G22   29.86S
BOONE *        CLOUDY    63  59  88 N12       29.87R
CHARITON *     CLOUDY    68  63  83 N10       29.84S
DES MOINES     PTSUNNY   66  58  75 N15       29.85S
GRINNELL*      HVY RAIN  61  59  91 N15       29.85F
KNOXVILLE *    CLOUDY    66  61  82 N12       29.83R
MARSHALLTOWN   RAIN      59  57  93 N16       29.86R FOG
NEWTON *       CLOUDY    63  61  94 N13       29.85R
PELLA *        CLOUDY    65  61  85 N12G17    29.85R
PERRY *        CLOUDY    63  57  81 N8        29.87R
$$

IAZ004>006-015-016-023>025-035-036-272200-
   NORTH CENTRAL IOWA

CITY           SKY/WX    TMP DP  RH WIND       PRES   REMARKS
ALGONA *       CLOUDY    68  48  49 NE12      29.88F
CLARION *      PTSUNNY   66  52  59 NE13      29.88S
ESTHERVILLE    CLOUDY    66  52  60 NW13      29.90F
FORT DODGE *   CLOUDY    66  52  59 NE13      29.87F
MASON CITY     CLOUDY    68  46  45 NE9       29.89F
FOREST CITY *  LGT RAIN  66  41  39 E3        29.88F
WEBSTER CITY * CLOUDY    64  55  72 NE9       29.86S
IOWA FALLS *   PTSUNNY   62  56  78 NE6       29.89S
$$

IAZ007>011-017>019-026>030-037>042-050>054-066-272200-
   NORTHEAST IOWA

CITY           SKY/WX    TMP DP  RH WIND       PRES   REMARKS
CEDAR RAPIDS   LGT RAIN  70  64  81 E6        29.83S
CHARLES CITY * CLOUDY    70  46  43 NW9       29.88S
CLINTON *      SUNNY     73  61  65 VRB7      29.86F
DECORAH *      CLOUDY    72  50  46 N5        29.85F
DUBUQUE        MOSUNNY   74  62  66 E6        29.84F
MONTICELLO *   MOSUNNY   72  63  73 NE5       29.85R
OELWEIN *      CLOUDY    73  54  49 N12G17    29.86S
WATERLOO       LGT RAIN  65  56  72 NW7       29.85S
$$

IAZ064-065-067-068-078-272200-
   EAST CENTRAL IOWA

CITY           SKY/WX    TMP DP  RH WIND       PRES   REMARKS
DAVENPORT      PTSUNNY   72  60  66 SE6       29.87R
IOWA CITY      CLOUDY    73  62  68 SE8       29.85R
MT. PLEASANT * MOSUNNY   72  60  64 SE9       29.84F
MUSCATINE *    CLOUDY    73  63  68 SE3       29.84F
QUAD CITIES    CLOUDY    74  61  63 SE3       29.86R
$$

IAZ062-063-075>077-085>089-095>099-272200-
   SOUTHEAST IOWA

CITY           SKY/WX    TMP DP  RH WIND       PRES   REMARKS
BURLINGTON     MOSUNNY   73  64  73 SE9       29.83F
FAIRFIELD *    CLOUDY    73  63  68 SE9       29.82S
FORT MADISON * CLOUDY    72  66  83 SE6       29.85R
KEOKUK *       CLOUDY    73  64  73 SE10      29.83F
OSKALOOSA *    PTSUNNY   76  60  58 S17       29.81S
OTTUMWA        CLOUDY    75  63  66 SE13      29.81S
WASHINGTON *   CLOUDY    72  64  78 E6G14     29.84F
$$

ABBREVIATIONS USED IN REMARKS
   TC - TEMPERATURES IN CELSIUS
  WCI - WIND CHILL INDEX
   HX - HEAT INDEX
  VSB - VISIBILITY
$$




USA.gov is the U.S. government's official web portal to all federal, state and local government web resources and services.